Regional Weather Roundup
Issued by NWS

Home | Current Version | Previous Version | Graphics & Text | Print | Product List | Glossary On
Versions: 1 2 3 4 5 6 7 8 9 10 11 12 13 14 15 16 17 18 19 20 21 22 23 24 25 26 27 28 29 30 31 32 33 34 35 36 37 38 39 40 41 42 43 44 45 46 47 48 49 50
000
ASUS43 KMKX 292111
RWRWI

WISCONSIN REGIONAL WEATHER ROUNDUP
NATIONAL WEATHER SERVICE MILWAUKEE/SULLIVAN WI
400 PM CDT TUE JUL 29 2014

NOTE: "FAIR" INDICATES FEW OR NO CLOUDS BELOW 12,000 FEET WITH NO
SIGNIFICANT WEATHER AND/OR OBSTRUCTIONS TO VISIBILITY.

WIZ001-002-006>008-014>016-023>028-292200-
NORTHWEST WISCONSIN

CITY           SKY/WX    TMP DP  RH WIND       PRES   REMARKS
SUPERIOR ARPT  MOSUNNY   78  56  46 NW15      30.00R
ASHLAND        LGT RAIN  63  60  90 NE5       30.02R
HAYWARD        SUNNY     76  53  44 VRB5G16   30.02F
SIREN          SUNNY     78  50  37 NW16      30.04F
RICE LAKE      LGT RAIN  67  55  66 W3        30.06F
LADYSMITH      MOSUNNY   73  59  62 W15       30.04F
EAU CLAIRE     LGT RAIN  72  54  53 NW16      30.03F
MENOMONIE      MOCLDY    78  53  41 NW10      30.04F
NEW RICHMOND   MOSUNNY   79  54  42 W10G20    30.04F
OSCEOLA        SUNNY     79  55  42 NW10G16   30.07F
$$

WIZ003>005-009-010-017-018-292200-
NORTH CENTRAL WISCONSIN

CITY           SKY/WX    TMP DP  RH WIND       PRES   REMARKS
WOODRUFF       MOSUNNY   72  58  60 N7        30.00S
RHINELANDER    MOSUNNY   72  55  55 NW9       30.01R
EAGLE RIVER    MOSUNNY   68  57  69 W6        30.00F
LAND O LAKES   MOSUNNY   71  52  50 N5        30.01S
PHILLIPS       CLOUDY    65  56  70 NE7       30.01S
TOMAHAWK       LGT RAIN  59  55  87 CALM      30.03R
MEDFORD        PTSUNNY   59  55  86 W9        30.05R
MERRILL        PTSUNNY   71  56  59 NW5       29.99S
$$

WIZ029-030-035-036-043>047-292200-
CENTRAL WISCONSIN

CITY           SKY/WX    TMP DP  RH WIND       PRES   REMARKS
WAUSAU         MOSUNNY   77  53  43 W13       29.97F
MOSINEE        MOSUNNY   75  55  50 W8G20     30.01F
MARSHFIELD     SUNNY     78  55  44 NW12      30.01F
STEVENS POINT  MOSUNNY   74  52  46 NW9       30.00F
WAUPACA        MOSUNNY   80  51  35 NW10G17   29.98F HX  80
WAUTOMA        MOSUNNY   80  53  39 W10       29.99F HX  80
WISC RAPIDS    MOSUNNY   80  53  39 NW10G18   30.01F HX  80
CAMP DOUGLAS   PTSUNNY   77  59  53 W7        30.01F
$$

WIZ011>013-019>022-031-037>040-048>050-292200-
NORTHEAST WISCONSIN

CITY           SKY/WX    TMP DP  RH WIND       PRES   REMARKS
ANTIGO         PTSUNNY   71  54  54 NW12G17   29.99R
STURGEON BAY   MOSUNNY   70  55  60 N6        29.97S
GREEN BAY      TSTM      65  59  81 SE3       29.97F
MANITOWOC      CLOUDY    66  58  75 W3        29.98R
APPLETON       PTSUNNY   75  52  43 MISG      29.97F
CLINTONVILLE   MOSUNNY   77  50  38 W10G18    29.95F
OSHKOSH        MOSUNNY   78  56  46 W10       29.97F
$$

WIZ032>034-041-042-053>061-292200-
SOUTHWEST WISCONSIN

CITY           SKY/WX    TMP DP  RH WIND       PRES   REMARKS
LA CROSSE      MOSUNNY   82  55  39 W13       30.02F HX  81
SPARTA         PTSUNNY   74  52  45 W14       30.04S
VIROQUA        FAIR      77  55  45 W7        30.05F
BOSCOBEL       MOSUNNY   83  56  39 W9        30.04F HX  82
PRAIRIE DU CHI MOSUNNY   80  49  33 NW7       30.04F HX  80
PLATTEVILLE    FAIR      79  52  39 W9G17     30.06F
$$

WIZ056-057-062-063-064-067-068-292200-
SOUTH CENTRAL WISCONSIN

CITY           SKY/WX    TMP DP  RH WIND       PRES   REMARKS
BARABOO/DELLS  MOSUNNY   79  49  34 NW9       30.02F
LONE ROCK      SUNNY     82  58  43 NW13      30.03F HX  82
WATERTOWN      MOSUNNY   77  55  45 NW9       30.00F
MADISON        MOSUNNY   79  53  40 NW8       30.02F
MIDDLETON      MOCLDY    79  49  35 NW8       30.02F
MONROE         MOSUNNY   79  54  41 W10G22    30.04F
JANESVILLE     NOT AVBL
$$

WIZ051-052-058>065-066-070>072-292200-
SOUTHEAST WISCONSIN

CITY           SKY/WX    TMP DP  RH WIND       PRES   REMARKS
MILWAUKEE      PTSUNNY   77  52  41 NW10      29.99F
WAUKESHA       PTSUNNY   75  52  43 W12G22    30.02F
MILWAUKEE/TIMM PTSUNNY   77  52  41 W13       30.00F
RACINE         PTSUNNY   73  59  61 SE9       30.02S
BURLINGTON     MOSUNNY   75  53  46 NW8       30.01F
KENOSHA        MOSUNNY   78  55  44 NW13      30.01F
FOND DU LAC    MOSUNNY   76  53  44 NW13      29.98F
SHEBOYGAN      SUNNY     76  55  48 NW13      29.98F
WEST BEND      MOSUNNY   75  50  41 NW8       29.99F
JUNEAU         PTSUNNY   76  47  35 NW9G20    30.01F
$$

LSZ147-162-292200-
LAKE SUPERIOR

STATION/POSITION TIME  TEMP    WIND        PRES    WAVE
                       AIR SEA DIR/SP/G            HT/PER
                 (UTC) (F)     (DEG/KT/KT) (MB)    (FT/S)
W MID LAKE BUOY  2050   53 44  250/  8/ 10 1016.0R   1
PORT WING        2000   69     350/ 15/ 25 1016.3R
SAXON HARBOR     2100           CALM  /  6 1016.3
$$

LMZ867-665-643>646-292200-
LAKE MICHIGAN

STATION/POSITION TIME  TEMP    WIND        PRES    WAVE
                       AIR SEA DIR/SP/G            HT/PER
                 (UTC) (F)     (DEG/KT/KT) (MB)    (FT/S)
N MID LAKE BUOY  2050   62 57     CALM     1014.1F   0
NORTHPORT PIER   2000   65     180/  4/  6 1014.6F
SISTER BAY       2010   68        CALM       N/A
ALGOMA LAKESHORE 2036          200/  9/ 10   N/A
KEWAUNEE LAKESHO 2000   59     150/  5/  8 1015.8F
SHEBOYGAN LAKESH 2100   76     280/ 12/ 15 1014.7F
PORT WASHINGTON  2040   79     280/  9/ 13 1015.6F
ATWATER BUOY     2100   65     160/ 10     1016.6F
MILWAUKEE LAKESH 2000   65     130/ 10/ 12   N/A
S MID LAKE BUOY  2050   63 64  170/  4/  6 1016.4F   1
KENOSHA   LAKESH 2100   66     170/  9/ 11 1015.6F
$$

TC  - TEMPERATURE IN CELSIUS
VSB - VISIBILITY IN STATUTE MILES
WCI - WIND CHILL INDEX
HX  - HEAT INDEX



USA.gov is the U.S. government's official web portal to all federal, state and local government web resources and services.